,,,PA_Meas_PMT16A,,PR_Meas_QMR101_102,,RH_Meas_QMH101,,SR_Meas_QMS101,,TA_Meas_QMH101,,GenWind,,GenWind,
date,time,status,PA,status,PR,status,RH,status,SR,status,TA,status,DirAvg,status,SpdAvg,
2009-10-23, 00:00:05,VALID,1001.08,VALID,0,VALID,89.938,VALID,0,VALID,23.0751,VALID,87,VALID,0.00117188,
2009-10-23, 00:01:05,VALID,1001.1,VALID,0,VALID,90.0753,VALID,0,VALID,23.0769,VALID,87,VALID,0.146094,
2009-10-23, 00:02:05,VALID,1001.08,VALID,0,VALID,90.4339,VALID,0,VALID,23.0964,VALID,87,VALID,0.283594,
2009-10-23, 00:03:05,VALID,1001.09,VALID,0,VALID,90.5712,VALID,0,VALID,23.0964,VALID,87,VALID,0.425391,
2009-10-23, 00:04:05,VALID,1001.07,VALID,0,VALID,90.6704,VALID,0,VALID,23.1159,VALID,105,VALID,0.501562,
2009-10-23, 00:05:05,VALID,1001.05,VALID,0,VALID,90.7543,VALID,0,VALID,23.1354,VALID,119,VALID,0.533594,
2009-10-23, 00:06:05,VALID,1001.05,VALID,0,VALID,90.762,VALID,0,VALID,23.1549,VALID,122,VALID,0.597656,
2009-10-23, 00:07:05,VALID,1001.03,VALID,0,VALID,90.6704,VALID,0,VALID,23.1744,VALID,123,VALID,0.710938,
2009-10-23, 00:08:05,VALID,1001,VALID,0,VALID,90.5483,VALID,0.112286,VALID,23.1921,VALID,140,VALID,0.901953,
2009-10-23, 00:09:05,VALID,1000.98,VALID,0,VALID,89.8464,VALID,0,VALID,23.2329,VALID,141,VALID,0.888281,
2009-10-23, 00:10:05,VALID,1000.95,VALID,0,VALID,89.9761,VALID,0,VALID,23.2897,VALID,137,VALID,0.945313,
2009-10-23, 00:11:05,VALID,1000.95,VALID,0,VALID,89.5489,VALID,0.112286,VALID,23.3677,VALID,144,VALID,0.840625,
2009-10-23, 00:12:05,VALID,1000.91,VALID,0,VALID,89.1521,VALID,0,VALID,23.4475,VALID,145,VALID,0.771484,
2009-10-23, 00:13:05,VALID,1000.92,VALID,0,VALID,88.7935,VALID,0,VALID,23.4866,VALID,149,VALID,0.778125,
2009-10-23, 00:14:05,VALID,1000.93,VALID,0,VALID,88.6104,VALID,0,VALID,23.4866,VALID,149,VALID,0.245703,
2009-10-23, 00:15:05,VALID,1000.94,VALID,0,VALID,88.4807,VALID,0.112286,VALID,23.5061,VALID,149,VALID,0.135547,
2009-10-23, 00:16:05,VALID,1000.92,VALID,0,VALID,88.1679,VALID,0,VALID,23.4866,VALID,255,VALID,0.430078,
2009-10-23, 00:17:05,VALID,1000.94,VALID,0,VALID,88.0306,VALID,0,VALID,23.3677,VALID,314,VALID,0.853516,
2009-10-23, 00:18:05,VALID,1000.93,VALID,0,VALID,88.7325,VALID,0,VALID,23.2702,VALID,314,VALID,0.790234,
2009-10-23, 00:19:05,VALID,1000.92,VALID,0,VALID,89.2666,VALID,0,VALID,23.2117,VALID,314,VALID,0.626172,
2009-10-23, 00:20:05,VALID,1000.9,VALID,0,VALID,89.5565,VALID,0,VALID,23.1921,VALID,315,VALID,0.453906,
2009-10-23, 00:21:05,VALID,1000.88,VALID,0,VALID,89.9837,VALID,0,VALID,23.1744,VALID,335,VALID,0.546875,
2009-10-23, 00:22:05,VALID,1000.86,VALID,0,VALID,90.0524,VALID,0,VALID,23.1744,VALID,30,VALID,0.712109,
2009-10-23, 00:23:05,VALID,1000.83,VALID,0,VALID,89.938,VALID,0,VALID,23.1744,VALID,47,VALID,0.704687,
2009-10-23, 00:24:05,VALID,1000.81,VALID,0,VALID,90.1821,VALID,0,VALID,23.1531,VALID,77,VALID,0.576953,
2009-10-23, 00:25:05,VALID,1000.82,VALID,0,VALID,90.1134,VALID,0,VALID,23.1531,VALID,76,VALID,0.369141,
2009-10-23, 00:26:05,VALID,1000.8,VALID,0,VALID,89.9456,VALID,0,VALID,23.1531,VALID,77,VALID,0.296094,
2009-10-23, 00:27:05,VALID,1000.81,VALID,0,VALID,89.7777,VALID,0,VALID,23.1549,VALID,77,VALID,0.246484,
2009-10-23, 00:28:05,VALID,1000.81,VALID,0,VALID,89.6786,VALID,0,VALID,23.1141,VALID,77,VALID,0.0160156,
2009-10-23, 00:29:05,VALID,1000.84,VALID,0,VALID,89.793,VALID,0,VALID,23.0964,VALID,77,VALID,0,
2009-10-23, 00:30:05,VALID,1000.83,VALID,0,VALID,89.9303,VALID,0,VALID,23.0981,VALID,77,VALID,0,
2009-10-23, 00:31:05,VALID,1000.82,VALID,0,VALID,89.5946,VALID,0,VALID,23.0786,VALID,51,VALID,0.338672,
2009-10-23, 00:32:05,VALID,1000.78,VALID,0,VALID,90.2203,VALID,0,VALID,23.0396,VALID,33,VALID,0.419531,
2009-10-23, 00:33:05,VALID,1000.75,VALID,0,VALID,90.6017,VALID,0,VALID,23.0591,VALID,33,VALID,0.246484,
2009-10-23, 00:34:05,VALID,1000.75,VALID,0,VALID,90.7543,VALID,0,VALID,23.0591,VALID,33,VALID,0.211328,
2009-10-23, 00:35:05,VALID,1000.71,VALID,0,VALID,90.8688,VALID,0,VALID,23.0591,VALID,33,VALID,0.225,
2009-10-23, 00:36:05,VALID,1000.73,VALID,0,VALID,90.9985,VALID,0,VALID,23.0786,VALID,33,VALID,0.250781,
2009-10-23, 00:37:05,VALID,1000.72,VALID,0,VALID,91.1053,VALID,0,VALID,23.0573,VALID,33,VALID,0.137109,
2009-10-23, 00:38:05,VALID,1000.72,VALID,0,VALID,91.1434,VALID,0,VALID,23.0981,VALID,33,VALID,0,
2009-10-23, 00:39:05,VALID,1000.73,VALID,0,VALID,91.1816,VALID,0,VALID,23.0786,VALID,33,VALID,0,
2009-10-23, 00:40:05,VALID,1000.72,VALID,0,VALID,91.2197,VALID,0,VALID,23.0786,VALID,33,VALID,0,
2009-10-23, 00:41:05,VALID,1000.75,VALID,0,VALID,91.235,VALID,0,VALID,23.0786,VALID,33,VALID,0.0835937,
2009-10-23, 00:42:05,VALID,1000.73,VALID,0,VALID,91.0061,VALID,0,VALID,23.0201,VALID,33,VALID,0.0875,
2009-10-23, 00:43:05,VALID,1000.7,VALID,0,VALID,91.1892,VALID,0,VALID,22.9988,VALID,33,VALID,0,
2009-10-23, 00:44:05,VALID,1000.7,VALID,0,VALID,91.3266,VALID,0,VALID,23.0006,VALID,33,VALID,0,
2009-10-23, 00:45:05,VALID,1000.71,VALID,0,VALID,91.38,VALID,0,VALID,22.9793,VALID,33,VALID,0,
2009-10-23, 00:46:05,VALID,1000.66,VALID,0,VALID,91.502,VALID,0,VALID,22.9793,VALID,33,VALID,0,
2009-10-23, 00:47:05,VALID,1000.68,VALID,0,VALID,91.5783,VALID,0,VALID,23.0006,VALID,33,VALID,0,
2009-10-23, 00:48:05,VALID,1000.65,VALID,0,VALID,91.5783,VALID,0,VALID,23.0006,VALID,33,VALID,0,
2009-10-23, 00:49:05,VALID,1000.64,VALID,0,VALID,91.6851,VALID,0,VALID,22.9988,VALID,33,VALID,0,
2009-10-23, 00:50:05,VALID,1000.62,VALID,0,VALID,91.6775,VALID,0,VALID,22.9988,VALID,25,VALID,0,
2009-10-23, 00:51:05,VALID,1000.6,VALID,0,VALID,91.6012,VALID,0,VALID,23.0201,VALID,23,VALID,0,
2009-10-23, 00:52:05,VALID,1000.6,VALID,0,VALID,91.5936,VALID,0,VALID,23.0201,VALID,23,VALID,0,
2009-10-23, 00:53:05,VALID,1000.59,VALID,0,VALID,91.5097,VALID,0,VALID,22.9811,VALID,23,VALID,0,
2009-10-23, 00:54:05,VALID,1000.6,VALID,0,VALID,91.5554,VALID,0,VALID,22.9615,VALID,23,VALID,0,
2009-10-23, 00:55:05,VALID,1000.62,VALID,0,VALID,91.7004,VALID,0,VALID,22.9615,VALID,23,VALID,0,
2009-10-23, 00:56:05,VALID,1000.6,VALID,0,VALID,91.7691,VALID,0,VALID,22.9598,VALID,23,VALID,0,
2009-10-23, 00:57:05,VALID,1000.59,VALID,0,VALID,91.7767,VALID,0,VALID,22.9598,VALID,23,VALID,0,
2009-10-23, 00:58:05,VALID,1000.6,VALID,0,VALID,91.8148,VALID,0,VALID,23.0006,VALID,23,VALID,0,
2009-10-23, 00:59:05,VALID,1000.58,VALID,0,VALID,91.7843,VALID,0,VALID,22.9811,VALID,23,VALID,0,
2009-10-23, 01:00:05,VALID,1000.59,VALID,0,VALID,91.7996,VALID,0,VALID,22.9811,VALID,23,VALID,0,
2009-10-23, 01:01:05,VALID,1000.59,VALID,0,VALID,91.7385,VALID,0,VALID,22.9811,VALID,23,VALID,0,
2009-10-23, 01:02:05,VALID,1000.56,VALID,0,VALID,91.8148,VALID,0,VALID,22.9811,VALID,23,VALID,0,
2009-10-23, 01:03:05,VALID,1000.57,VALID,0,VALID,91.7233,VALID,0,VALID,22.9615,VALID,23,VALID,0,
2009-10-23, 01:04:05,VALID,1000.53,VALID,0,VALID,91.6775,VALID,0,VALID,22.9225,VALID,23,VALID,0,
2009-10-23, 01:05:05,VALID,1000.57,VALID,0,VALID,91.8072,VALID,0,VALID,22.903,VALID,23,VALID,0,
2009-10-23, 01:06:05,VALID,1000.54,VALID,0,VALID,91.9064,VALID,0,VALID,22.903,VALID,23,VALID,0,
2009-10-23, 01:07:05,VALID,1000.55,VALID,0,VALID,92.0437,VALID,0,VALID,22.903,VALID,23,VALID,0,
2009-10-23, 01:08:05,VALID,1000.57,VALID,0,VALID,92.1277,VALID,0,VALID,22.903,VALID,30,VALID,0.389844,
2009-10-23, 01:09:05,VALID,1000.58,VALID,0,VALID,92.204,VALID,0,VALID,22.903,VALID,34,VALID,0.694141,
2009-10-23, 01:10:05,VALID,1000.58,VALID,0,VALID,92.0514,VALID,0,VALID,22.8818,VALID,40,VALID,0.717969,
2009-10-23, 01:11:05,VALID,1000.6,VALID,0,VALID,91.9369,VALID,0,VALID,22.8835,VALID,42,VALID,0.675781,
2009-10-23, 01:12:05,VALID,1000.6,VALID,0,VALID,91.8911,VALID,0,VALID,22.864,VALID,42,VALID,0.688281,
2009-10-23, 01:13:05,VALID,1000.57,VALID,0,VALID,91.7767,VALID,0,VALID,22.8445,VALID,42,VALID,0.653125,
2009-10-23, 01:14:05,VALID,1000.54,VALID,0,VALID,91.8988,VALID,0,VALID,22.825,VALID,42,VALID,0.542578,
2009-10-23, 01:15:05,VALID,1000.49,VALID,0,VALID,91.7843,VALID,0,VALID,22.8055,VALID,42,VALID,0.517969,
2009-10-23, 01:16:05,VALID,1000.47,VALID,0,VALID,91.6928,VALID,0,VALID,22.786,VALID,42,VALID,0.437891,
2009-10-23, 01:17:05,VALID,1000.48,VALID,0,VALID,91.3266,VALID,0,VALID,22.7079,VALID,42,VALID,0.317578,
2009-10-23, 01:18:05,VALID,1000.47,VALID,0,VALID,91.1282,VALID,0,VALID,22.6299,VALID,42,VALID,0.0789063,
2009-10-23, 01:19:05,VALID,1000.47,VALID,0,VALID,91.3876,VALID,0,VALID,22.5909,VALID,42,VALID,0,
2009-10-23, 01:20:05,VALID,1000.45,VALID,0,VALID,91.6623,VALID,0,VALID,22.5714,VALID,42,VALID,0,
2009-10-23, 01:21:05,VALID,1000.47,VALID,0,VALID,91.8835,VALID,0,VALID,22.5714,VALID,42,VALID,0,
2009-10-23, 01:22:05,VALID,1000.53,VALID,0,VALID,91.8835,VALID,0,VALID,22.5696,VALID,42,VALID,0,
2009-10-23, 01:23:05,VALID,1000.51,VALID,0,VALID,91.853,VALID,0,VALID,22.5714,VALID,42,VALID,0,
2009-10-23, 01:24:05,VALID,1000.53,VALID,0,VALID,91.6394,VALID,0,VALID,22.5323,VALID,42,VALID,0,
2009-10-23, 01:25:05,VALID,1000.49,VALID,0,VALID,91.6699,VALID,0,VALID,22.5128,VALID,42,VALID,0,
2009-10-23, 01:26:05,VALID,1000.49,VALID,0,VALID,91.853,VALID,0,VALID,22.4933,VALID,42,VALID,0,
2009-10-23, 01:27:05,VALID,1000.47,VALID,0,VALID,92.0971,VALID,0,VALID,22.4933,VALID,42,VALID,0,
2009-10-23, 01:28:05,VALID,1000.47,VALID,0,VALID,92.2421,VALID,0,VALID,22.5128,VALID,42,VALID,0,
2009-10-23, 01:29:05,VALID,1000.44,VALID,0,VALID,92.326,VALID,0,VALID,22.5111,VALID,42,VALID,0,
2009-10-23, 01:30:05,VALID,1000.42,VALID,0,VALID,92.3184,VALID,0,VALID,22.5323,VALID,42,VALID,0,
2009-10-23, 01:31:05,VALID,1000.42,VALID,0,VALID,92.5168,VALID,0,VALID,22.5519,VALID,42,VALID,0,
2009-10-23, 01:32:05,VALID,1000.38,VALID,0,VALID,92.7838,VALID,0,VALID,22.6104,VALID,42,VALID,0,
2009-10-23, 01:33:05,VALID,1000.38,VALID,0,VALID,92.7457,VALID,0,VALID,22.6282,VALID,42,VALID,0,
2009-10-23, 01:34:05,VALID,1000.39,VALID,0,VALID,92.7762,VALID,0,VALID,22.6884,VALID,42,VALID,0,
2009-10-23, 01:35:05,VALID,1000.37,VALID,0,VALID,92.4023,VALID,0,VALID,22.6689,VALID,42,VALID,0,
2009-10-23, 01:36:05,VALID,1000.41,VALID,0,VALID,92.1811,VALID,0,VALID,22.6087,VALID,42,VALID,0,
2009-10-23, 01:37:05,VALID,1000.45,VALID,0,VALID,92.1277,VALID,0,VALID,22.5714,VALID,42,VALID,0,
2009-10-23, 01:38:05,VALID,1000.44,VALID,0,VALID,92.1963,VALID,0,VALID,22.5111,VALID,42,VALID,0,
2009-10-23, 01:39:05,VALID,1000.46,VALID,0,VALID,92.2803,VALID,0,VALID,22.5128,VALID,42,VALID,0,
2009-10-23, 01:40:05,VALID,1000.45,VALID,0,VALID,92.1963,VALID,0,VALID,22.4526,VALID,42,VALID,0,
2009-10-23, 01:41:05,VALID,1000.45,VALID,0,VALID,92.2268,VALID,0,VALID,22.4348,VALID,42,VALID,0,
2009-10-23, 01:42:05,VALID,1000.45,VALID,0,VALID,92.2955,VALID,0,VALID,22.4153,VALID,42,VALID,0,
2009-10-23, 01:43:05,VALID,1000.41,VALID,0,VALID,92.471,VALID,0,VALID,22.4153,VALID,42,VALID,0,
2009-10-23, 01:44:05,VALID,1000.43,VALID,0,VALID,92.5549,VALID,0,VALID,22.4348,VALID,42,VALID,0,
2009-10-23, 01:45:05,VALID,1000.4,VALID,0,VALID,92.616,VALID,0,VALID,22.4331,VALID,111,VALID,0.869922,
2009-10-23, 01:46:05,VALID,1000.37,VALID,0,VALID,92.6923,VALID,0,VALID,22.4331,VALID,118,VALID,1.06367,
2009-10-23, 01:47:05,VALID,1000.37,VALID,0,VALID,92.8983,VALID,0,VALID,22.4933,VALID,118,VALID,0.957031,
2009-10-23, 01:48:05,VALID,1000.36,VALID,0,VALID,92.8754,VALID,0,VALID,22.5323,VALID,122,VALID,0.821875,
2009-10-23, 01:49:05,VALID,1000.39,VALID,0,VALID,92.8906,VALID,0,VALID,22.5323,VALID,122,VALID,0.744141,
2009-10-23, 01:50:05,VALID,1000.37,VALID,0,VALID,92.9517,VALID,0,VALID,22.5696,VALID,122,VALID,0.695703,
2009-10-23, 01:51:05,VALID,1000.35,VALID,0,VALID,92.8296,VALID,0,VALID,22.5892,VALID,122,VALID,0.772266,
2009-10-23, 01:52:05,VALID,1000.34,VALID,0,VALID,92.6236,VALID,0,VALID,22.6494,VALID,122,VALID,0.834766,
2009-10-23, 01:53:05,VALID,1000.34,VALID,0,VALID,92.4863,VALID,0,VALID,22.6494,VALID,122,VALID,0.748828,
2009-10-23, 01:54:05,VALID,1000.31,VALID,0,VALID,92.3718,VALID,0,VALID,22.6689,VALID,122,VALID,0.793359,
2009-10-23, 01:55:05,VALID,1000.32,VALID,0,VALID,92.1734,VALID,0,VALID,22.6672,VALID,122,VALID,0.641406,
2009-10-23, 01:56:05,VALID,1000.35,VALID,0,VALID,92.059,VALID,0,VALID,22.7079,VALID,122,VALID,0.464453,
2009-10-23, 01:57:05,VALID,1000.35,VALID,0,VALID,91.998,VALID,0,VALID,22.7079,VALID,122,VALID,0.291797,
2009-10-23, 01:58:05,VALID,1000.39,VALID,0,VALID,91.9064,VALID,0,VALID,22.7062,VALID,122,VALID,0.388672,
2009-10-23, 01:59:05,VALID,1000.37,VALID,0,VALID,91.5631,VALID,0,VALID,22.7469,VALID,122,VALID,0.475781,
2009-10-23, 02:00:05,VALID,1000.35,VALID,0,VALID,91.3571,VALID,0,VALID,22.7274,VALID,121,VALID,0.429297,
2009-10-23, 02:01:05,VALID,1000.37,VALID,0,VALID,91.3418,VALID,0,VALID,22.7062,VALID,121,VALID,0.454688,
2009-10-23, 02:02:05,VALID,1000.37,VALID,0,VALID,91.4028,VALID,0,VALID,22.7469,VALID,117,VALID,0.716797,
2009-10-23, 02:03:05,VALID,1000.39,VALID,0,VALID,91.3952,VALID,0,VALID,22.7647,VALID,111,VALID,0.882031,
2009-10-23, 02:04:05,VALID,1000.38,VALID,0,VALID,91.0748,VALID,0,VALID,22.7647,VALID,105,VALID,0.978906,
2009-10-23, 02:05:05,VALID,1000.37,VALID,0,VALID,90.8154,VALID,0,VALID,22.7647,VALID,105,VALID,0.867969,
2009-10-23, 02:06:05,VALID,1000.37,VALID,0,VALID,90.8688,VALID,0,VALID,22.7257,VALID,106,VALID,0.910156,
2009-10-23, 02:07:05,VALID,1000.38,VALID,0,VALID,90.8688,VALID,0,VALID,22.7257,VALID,105,VALID,0.666797,
2009-10-23, 02:08:05,VALID,1000.37,VALID,0,VALID,90.9146,VALID,0,VALID,22.7062,VALID,105,VALID,0.635547,
2009-10-23, 02:09:05,VALID,1000.37,VALID,0,VALID,90.9603,VALID,0,VALID,22.7079,VALID,105,VALID,0.608984,
2009-10-23, 02:10:05,VALID,1000.35,VALID,0,VALID,90.884,VALID,0,VALID,22.6689,VALID,103,VALID,0.640625,
2009-10-23, 02:11:05,VALID,1000.33,VALID,0,VALID,91.1816,VALID,0,VALID,22.6477,VALID,98,VALID,0.5,
2009-10-23, 02:12:05,VALID,1000.35,VALID,0,VALID,91.2197,VALID,0,VALID,22.6477,VALID,98,VALID,0.357031,
2009-10-23, 02:13:05,VALID,1000.32,VALID,0,VALID,91.3037,VALID,0,VALID,22.6282,VALID,98,VALID,0.179297,
2009-10-23, 02:14:05,VALID,1000.31,VALID,0,VALID,91.4639,VALID,0,VALID,22.6087,VALID,98,VALID,0.197656,
2009-10-23, 02:15:05,VALID,1000.27,VALID,0,VALID,91.5936,VALID,0,VALID,22.6104,VALID,98,VALID,0.197656,
2009-10-23, 02:16:05,VALID,1000.26,VALID,0,VALID,91.6928,VALID,0,VALID,22.5892,VALID,98,VALID,0.351563,
2009-10-23, 02:17:05,VALID,1000.23,VALID,0,VALID,91.8606,VALID,0,VALID,22.5892,VALID,98,VALID,0.566016,
2009-10-23, 02:18:05,VALID,1000.22,VALID,0,VALID,91.9827,VALID,0,VALID,22.6104,VALID,98,VALID,0.569922,
2009-10-23, 02:19:05,VALID,1000.21,VALID,0,VALID,92.0514,VALID,0,VALID,22.5892,VALID,98,VALID,0.567187,
2009-10-23, 02:20:05,VALID,1000.2,VALID,0,VALID,92.1506,VALID,0,VALID,22.5892,VALID,76,VALID,0.703906,
2009-10-23, 02:21:05,VALID,1000.24,VALID,0,VALID,92.0132,VALID,0,VALID,22.6087,VALID,55,VALID,0.740234,
2009-10-23, 02:22:05,VALID,1000.23,VALID,0,VALID,91.7157,VALID,0,VALID,22.6494,VALID,55,VALID,0.589453,
2009-10-23, 02:23:05,VALID,1000.26,VALID,0,VALID,91.4791,VALID,0,VALID,22.6477,VALID,55,VALID,0.457031,
2009-10-23, 02:24:04,VALID,1000.28,VALID,0,VALID,91.0061,VALID,0,VALID,22.6282,VALID,55,VALID,0.365625,
2009-10-23, 02:25:04,VALID,1000.29,VALID,0,VALID,90.7849,VALID,0,VALID,22.6282,VALID,55,VALID,0.204297,
2009-10-23, 02:26:04,VALID,1000.32,VALID,0,VALID,90.6017,VALID,0,VALID,22.6087,VALID,55,VALID,0.246094,
2009-10-23, 02:27:04,VALID,1000.3,VALID,0,VALID,90.4568,VALID,0,VALID,22.5696,VALID,55,VALID,0.170312,
2009-10-23, 02:28:04,VALID,1000.31,VALID,0,VALID,90.6704,VALID,0,VALID,22.5501,VALID,55,VALID,0.307031,
2009-10-23, 02:29:04,VALID,1000.32,VALID,0,VALID,90.617,VALID,0,VALID,22.5306,VALID,55,VALID,0.286328,
2009-10-23, 02:30:04,VALID,1000.36,VALID,0,VALID,90.8154,VALID,0,VALID,22.5519,VALID,55,VALID,0.431641,
2009-10-23, 02:31:04,VALID,1000.34,VALID,0,VALID,90.8611,VALID,0,VALID,22.5501,VALID,104,VALID,0.597656,
2009-10-23, 02:32:04,VALID,1000.32,VALID,0,VALID,90.6933,VALID,0,VALID,22.5892,VALID,109,VALID,0.839844,
2009-10-23, 02:33:04,VALID,1000.33,VALID,0,VALID,90.3347,VALID,0,VALID,22.6494,VALID,114,VALID,0.424609,
2009-10-23, 02:34:04,VALID,1000.32,VALID,0,VALID,89.9761,VALID,0,VALID,22.7079,VALID,114,VALID,0.330078,
2009-10-23, 02:35:04,VALID,1000.31,VALID,0,VALID,89.7549,VALID,0,VALID,22.7062,VALID,114,VALID,0.302344,
2009-10-23, 02:36:04,VALID,1000.29,VALID,0,VALID,89.6099,VALID,0,VALID,22.7469,VALID,114,VALID,0.0328125,
2009-10-23, 02:37:04,VALID,1000.29,VALID,0,VALID,89.5565,VALID,0,VALID,22.7257,VALID,114,VALID,0.143359,
2009-10-23, 02:38:04,VALID,1000.28,VALID,0,VALID,89.4726,VALID,0,VALID,22.7257,VALID,114,VALID,0.00585938,
2009-10-23, 02:39:04,VALID,1000.25,VALID,0,VALID,89.4191,VALID,0,VALID,22.7257,VALID,114,VALID,0,
2009-10-23, 02:40:04,VALID,1000.21,VALID,0,VALID,89.4573,VALID,0,VALID,22.7257,VALID,114,VALID,0.130469,
2009-10-23, 02:41:04,VALID,1000.19,VALID,0,VALID,89.4954,VALID,0,VALID,22.7079,VALID,114,VALID,0,
2009-10-23, 02:42:04,VALID,1000.2,VALID,0,VALID,89.5489,VALID,0,VALID,22.6672,VALID,114,VALID,0.305469,
2009-10-23, 02:43:04,VALID,1000.18,VALID,0,VALID,89.4649,VALID,0,VALID,22.6884,VALID,110,VALID,0.599219,
2009-10-23, 02:44:04,VALID,1000.19,VALID,0,VALID,89.4268,VALID,0,VALID,22.6477,VALID,101,VALID,0.558984,
2009-10-23, 02:45:04,VALID,1000.2,VALID,0,VALID,89.3123,VALID,0,VALID,22.6477,VALID,101,VALID,0.414453,
2009-10-23, 02:46:04,VALID,1000.21,VALID,0,VALID,89.2513,VALID,0,VALID,22.6494,VALID,101,VALID,0.0773437,
2009-10-23, 02:47:04,VALID,1000.21,VALID,0,VALID,89.4115,VALID,0,VALID,22.6299,VALID,101,VALID,0,
2009-10-23, 02:48:04,VALID,1000.2,VALID,0,VALID,89.2971,VALID,0,VALID,22.5892,VALID,41,VALID,0,
2009-10-23, 02:49:04,VALID,1000.21,VALID,0,VALID,89.8159,VALID,0,VALID,22.5892,VALID,21,VALID,0.845703,
2009-10-23, 02:50:04,VALID,1000.18,VALID,0,VALID,89.9074,VALID,0,VALID,22.5323,VALID,19,VALID,0.904688,
2009-10-23, 02:51:04,VALID,1000.21,VALID,0,VALID,89.6709,VALID,0,VALID,22.4331,VALID,18,VALID,0.930078,
2009-10-23, 02:52:04,VALID,1000.22,VALID,0,VALID,90.0295,VALID,0,VALID,22.3551,VALID,16,VALID,0.809766,
2009-10-23, 02:53:04,VALID,1000.23,VALID,0,VALID,90.1211,VALID,0,VALID,22.2576,VALID,16,VALID,0.746484,
2009-10-23, 02:54:04,VALID,1000.21,VALID,0,VALID,90.678,VALID,0,VALID,22.2186,VALID,16,VALID,0.824609,
2009-10-23, 02:55:04,VALID,1000.26,VALID,0,VALID,90.6551,VALID,0,VALID,22.1812,VALID,18,VALID,0.692187,
2009-10-23, 02:56:04,VALID,1000.23,VALID,0,VALID,91.2503,VALID,0,VALID,22.1422,VALID,26,VALID,0.575391,
2009-10-23, 02:57:04,VALID,1000.23,VALID,0,VALID,91.3266,VALID,0,VALID,22.1227,VALID,51,VALID,0.827734,
2009-10-23, 02:58:04,VALID,1000.19,VALID,0,VALID,91.6851,VALID,0,VALID,22.121,VALID,56,VALID,0.783984,
2009-10-23, 02:59:04,VALID,1000.21,VALID,0,VALID,91.8377,VALID,0,VALID,22.1422,VALID,56,VALID,0.558203,
2009-10-23, 03:00:04,VALID,1000.18,VALID,0,VALID,91.9369,VALID,0,VALID,22.1422,VALID,56,VALID,0.282813,
2009-10-23, 03:01:04,VALID,1000.16,VALID,0,VALID,91.8454,VALID,0,VALID,22.1015,VALID,56,VALID,0.0148437,
2009-10-23, 03:02:04,VALID,1000.12,VALID,0,VALID,91.7233,VALID,0,VALID,22.0837,VALID,56,VALID,0,
2009-10-23, 03:03:04,VALID,1000.09,VALID,0,VALID,91.792,VALID,0,VALID,22.043,VALID,56,VALID,0.154687,
2009-10-23, 03:04:04,VALID,1000.11,VALID,0,VALID,92.1277,VALID,0,VALID,22.0837,VALID,75,VALID,0.521875,
2009-10-23, 03:05:04,VALID,1000.1,VALID,0,VALID,92.3642,VALID,0,VALID,22.1227,VALID,103,VALID,0.646094,
2009-10-23, 03:06:04,VALID,1000.11,VALID,0,VALID,92.532,VALID,0,VALID,22.1812,VALID,139,VALID,0.708203,
2009-10-23, 03:07:04,VALID,1000.1,VALID,0,VALID,92.3871,VALID,0,VALID,22.2186,VALID,149,VALID,1.02461,
2009-10-23, 03:08:04,VALID,1000.13,VALID,0,VALID,91.9293,VALID,0,VALID,22.2966,VALID,149,VALID,0.700391,
2009-10-23, 03:09:04,VALID,1000.14,VALID,0,VALID,91.1129,VALID,0,VALID,22.4153,VALID,147,VALID,0.757422,
2009-10-23, 03:10:04,VALID,1000.16,VALID,0,VALID,90.5102,VALID,0,VALID,22.5128,VALID,147,VALID,0.516797,
2009-10-23, 03:11:04,VALID,1000.16,VALID,0,VALID,89.9761,VALID,0,VALID,22.5909,VALID,147,VALID,0.473437,
2009-10-23, 03:12:04,VALID,1000.14,VALID,0,VALID,89.4115,VALID,0,VALID,22.6689,VALID,142,VALID,0.261719,
2009-10-23, 03:13:04,VALID,1000.16,VALID,0,VALID,88.9614,VALID,0,VALID,22.6672,VALID,142,VALID,0.365625,
2009-10-23, 03:14:04,VALID,1000.17,VALID,0,VALID,88.5723,VALID,0,VALID,22.6884,VALID,142,VALID,0.260938,
2009-10-23, 03:15:04,VALID,1000.18,VALID,0,VALID,88.4426,VALID,0,VALID,22.6672,VALID,141,VALID,0.484375,
2009-10-23, 03:16:04,VALID,1000.11,VALID,0,VALID,88.4731,VALID,0,VALID,22.6672,VALID,128,VALID,0.458203,
2009-10-23, 03:17:04,VALID,1000.09,VALID,0,VALID,88.1068,VALID,0,VALID,22.6477,VALID,122,VALID,0.28125,
2009-10-23, 03:18:04,VALID,1000.06,VALID,0,VALID,88.2518,VALID,0,VALID,22.6282,VALID,123,VALID,0.646484,
2009-10-23, 03:19:04,VALID,1000.07,VALID,0,VALID,88.2137,VALID,0,VALID,22.6282,VALID,124,VALID,0.64375,
2009-10-23, 03:20:04,VALID,1000.07,VALID,0,VALID,88.1221,VALID,0,VALID,22.6299,VALID,124,VALID,0.312109,
2009-10-23, 03:21:04,VALID,1000.06,VALID,0,VALID,88.1984,VALID,0,VALID,22.5909,VALID,155,VALID,0.322266,
2009-10-23, 03:22:04,VALID,1000.1,VALID,0,VALID,88.3281,VALID,0,VALID,22.6494,VALID,193,VALID,0.334766,
2009-10-23, 03:23:04,VALID,1000.07,VALID,0,VALID,88.1297,VALID,0,VALID,22.6282,VALID,193,VALID,0.675781,
2009-10-23, 03:24:04,VALID,1000.06,VALID,0,VALID,87.939,VALID,0,VALID,22.6867,VALID,193,VALID,0.478906,
2009-10-23, 03:25:04,VALID,1000.06,VALID,0,VALID,87.5651,VALID,0,VALID,22.7257,VALID,177,VALID,0.588281,
2009-10-23, 03:26:04,VALID,1000.02,VALID,0,VALID,87.1455,VALID,0,VALID,22.786,VALID,161,VALID,0.696875,
2009-10-23, 03:27:04,VALID,999.992,VALID,0,VALID,86.9319,VALID,0,VALID,22.7842,VALID,151,VALID,0.977344,
2009-10-23, 03:28:04,VALID,999.993,VALID,0,VALID,86.8937,VALID,0,VALID,22.8445,VALID,149,VALID,1.33594,
2009-10-23, 03:29:04,VALID,999.985,VALID,0,VALID,86.4589,VALID,0,VALID,22.9013,VALID,156,VALID,1.84063,
2009-10-23, 03:30:04,VALID,999.992,VALID,0,VALID,86.085,VALID,0,VALID,23.0006,VALID,148,VALID,1.69609,
2009-10-23, 03:31:04,VALID,999.976,VALID,0,VALID,85.9019,VALID,0,VALID,22.9988,VALID,167,VALID,1.0332,
2009-10-23, 03:32:04,VALID,999.982,VALID,0,VALID,85.8637,VALID,0,VALID,23.0396,VALID,180,VALID,0.871484,
2009-10-23, 03:33:04,VALID,1000.02,VALID,0,VALID,85.7035,VALID,0,VALID,23.0769,VALID,183,VALID,1.14063,
2009-10-23, 03:34:04,VALID,999.99,VALID,0,VALID,85.4517,VALID,0,VALID,23.1159,VALID,175,VALID,1.19492,
2009-10-23, 03:35:04,VALID,1000.01,VALID,0,VALID,85.2686,VALID,0,VALID,23.1566,VALID,170,VALID,1.17227,
2009-10-23, 03:36:04,VALID,1000.02,VALID,0,VALID,85.2457,VALID,0,VALID,23.1354,VALID,173,VALID,1.10703,
2009-10-23, 03:37:04,VALID,1000,VALID,0,VALID,85.2,VALID,0,VALID,23.1744,VALID,175,VALID,1.31445,
2009-10-23, 03:38:04,VALID,1000.02,VALID,0,VALID,84.9558,VALID,0,VALID,23.2134,VALID,180,VALID,1.28789,
2009-10-23, 03:39:04,VALID,1000.05,VALID,0,VALID,84.704,VALID,0,VALID,23.2524,VALID,171,VALID,1.54727,
2009-10-23, 03:40:04,VALID,1000.06,VALID,0,VALID,84.4752,VALID,0,VALID,23.2915,VALID,177,VALID,1.57539,
2009-10-23, 03:41:04,VALID,1000.09,VALID,0,VALID,84.086,VALID,0,VALID,23.3518,VALID,175,VALID,1.58672,
2009-10-23, 03:42:04,VALID,1000.14,VALID,0,VALID,83.6054,VALID,0,VALID,23.4085,VALID,182,VALID,1.49883,
2009-10-23, 03:43:04,VALID,1000.12,VALID,0,VALID,83.5138,VALID,0,VALID,23.428,VALID,173,VALID,1.3,
2009-10-23, 03:44:04,VALID,1000.16,VALID,0,VALID,83.1934,VALID,0,VALID,23.428,VALID,171,VALID,1.27773,
2009-10-23, 03:45:04,VALID,1000.12,VALID,0,VALID,83.2239,VALID,0,VALID,23.4475,VALID,182,VALID,1.53164,
2009-10-23, 03:46:04,VALID,1000.13,VALID,0,VALID,82.9874,VALID,0,VALID,23.5061,VALID,182,VALID,1.57578,
2009-10-23, 03:47:04,VALID,1000.15,VALID,0,VALID,82.4915,VALID,0,VALID,23.5841,VALID,180,VALID,1.68398,
2009-10-23, 03:48:04,VALID,1000.17,VALID,0,VALID,82.2778,VALID,0,VALID,23.6036,VALID,193,VALID,1.27461,
2009-10-23, 03:49:04,VALID,1000.19,VALID,0,VALID,82.0871,VALID,0,VALID,23.6445,VALID,167,VALID,1.71719,